Altus, OK

2:19 AM CDT on July 27, 2016 (GMT -0500)
Altus Air Force Base

Weather History for KLTS - September, 2012

Change the Weather History Date:

Tuesday, September 18, 2012

  Actual Average Record
Temperature  
Mean Temperature 68 °F -  
Max Temperature 82 °F 84 °F 102 °F (2002)
Min Temperature 55 °F 61 °F 50 °F (2006)
Cooling Degree Days 3    
Growing Degree Days 18 (Base 50)    
Moisture  
Dew Point 43 °F    
Average Humidity 44    
Maximum Humidity 72    
Minimum Humidity 18    
Precipitation  
Precipitation 0.00 in - - ()
Sea Level Pressure  
Sea Level Pressure 30.07 in    
Wind  
Wind Speed 13 mph (NE)    
Max Wind Speed 24 mph    
Max Gust Speed 28 mph    
Visibility 10 miles    
Events      
Averages and records for this station are not official NWS values.
T = Trace of Precipitation, MM = Missing Value Source: NWS Daily Summary

Daily Weather History Graph

Daily Weather History Graph

Search for Another Location

Airport or City:

Trip Planner

Search our weather history database for the weather conditions in past years. The results will help you decide how hot, cold, wet, or windy it might be!

Date:

Astronomy

Sep. 18, 2012 Rise Set
Actual Time 7:22 AM CDT 7:38 PM CDT
Civil Twilight 6:57 AM CDT 8:03 PM CDT
Nautical Twilight 6:27 AM CDT 8:33 PM CDT
Astronomical Twilight 5:57 AM CDT 9:03 PM CDT
Moon 10:14 AM CDT (9/18) 9:14 PM CDT (9/18)
Length of Visible Light 13h 06m
Length of Day
12h 16m
Waxing Crescent, 9% of the Moon is Illuminated
Sep 18
Waxing Crescent
Sep 22
First Quarter
Sep 29
Full
Oct 8
Last Quarter
Oct 15
New

Hourly Weather History & Observations

Time (CDT) Temp. Dew Point Humidity Pressure Visibility Wind Dir Wind Speed Gust Speed Precip Events Conditions
12:55 AM 67.3 °F 55.0 °F 65% 29.99 in 10.0 mi NNE 18.4 mph 25.3 mph N/A   Clear
1:55 AM 65.7 °F 54.9 °F 68% 29.99 in 10.0 mi NNE 20.7 mph - N/A   Clear
2:55 AM 64.0 °F 54.9 °F 72% 30.01 in 10.0 mi North 17.3 mph - N/A   Clear
3:55 AM 62.1 °F 53.1 °F 72% 30.00 in 10.0 mi NNE 24.2 mph 27.6 mph N/A   Scattered Clouds
4:55 AM 60.6 °F 50.9 °F 70% 30.01 in 10.0 mi North 15.0 mph - N/A   Partly Cloudy
5:55 AM 60.1 °F 48.7 °F 66% 30.05 in 10.0 mi North 12.7 mph - N/A   Clear
6:55 AM 59.0 °F 45.3 °F 60% 30.08 in 10.0 mi NNE 8.1 mph - N/A   Clear
7:55 AM 55.8 °F 44.8 °F 67% 30.11 in 10.0 mi NNE 8.1 mph - N/A   Clear
8:55 AM 61.0 °F 44.1 °F 54% 30.12 in 10.0 mi NNE 10.4 mph - N/A   Clear
9:55 AM 64.8 °F 43.2 °F 45% 30.14 in 7.0 mi NNE 13.8 mph - N/A   Clear
10:55 AM 69.3 °F 40.3 °F 35% 30.15 in 10.0 mi NE 10.4 mph - N/A   Clear
11:55 AM 72.7 °F 39.0 °F 29% 30.14 in 10.0 mi NE 12.7 mph 19.6 mph N/A   Clear
12:55 PM 75.6 °F 39.0 °F 27% 30.14 in 10.0 mi East 9.2 mph - N/A   Clear
1:55 PM 77.2 °F 38.3 °F 25% 30.11 in 10.0 mi Variable 4.6 mph - N/A   Clear
2:55 PM 79.3 °F 36.5 °F 21% 30.09 in 10.0 mi Variable 3.5 mph - N/A   Clear
3:55 PM 81.5 °F 34.5 °F 18% 30.06 in 10.0 mi ENE 4.6 mph - N/A   Clear
4:55 PM 81.9 °F 35.8 °F 19% 30.04 in 10.0 mi Calm Calm - N/A   Clear
5:55 PM 81.0 °F 35.4 °F 19% 30.03 in 10.0 mi Calm Calm - N/A   Clear
6:55 PM 80.1 °F 36.1 °F 21% 30.03 in 10.0 mi SE 6.9 mph - N/A   Clear
7:55 PM 72.7 °F 38.1 °F 28% 30.04 in 10.0 mi South 8.1 mph - N/A   Clear
8:55 PM 69.3 °F 37.6 °F 31% 30.05 in 10.0 mi South 10.4 mph - N/A   Clear
9:55 PM 61.9 °F 37.6 °F 41% 30.07 in 10.0 mi SSE 6.9 mph - N/A   Clear
10:55 PM 61.0 °F 39.0 °F 44% 30.06 in 10.0 mi South 10.4 mph - N/A   Clear
11:55 PM 58.6 °F 39.2 °F 48% 30.06 in 10.0 mi South 8.1 mph - N/A   Clear